Location: Navalespino
(40.5894°N, 4.2660°W)
Time: 06:10:03
(UTC+00:00)

Tiangong - Pass Details

Date: 18 April 2024
Orbit: 371 x 374 km, 41.5° (Epoch: 22 May)

Event Time Altitude Azimuth Distance (km) Brightness Sun altitude
Rises 19:35:18 0° 230° (SW) 2,255 2.2 -7.2°
Reaches altitude 10° 19:37:30 10° 220° (SW) 1,399 0.9 -7.6°
Maximum altitude 19:40:21 32° 155° (SSE) 683 -1.3 -8.1°
Enters shadow 19:43:07 11° 91° (E) 1,358 0.1 -8.6°
